User: anonymous   Login
Location: Oshawa
(43.9000°N, 78.8670°W)
Time: 00:00:24
(UTC-04:00)
Language:

Cosmos 1408 Rocket - Orbit

View from above orbital plane
View from above orbital plane
View from above satellite
View from above satellite

Ground track
Ground track

The orbit data is extracted from the following two-line orbital elements,

1 13553U 82092B   17262.34865728 +.00000095 +00000-0 +83248-5 0  9993
2 13553 082.5697 146.3657 0022994 093.3781 026.0925 14.84135672869913
Epoch (UTC): 19 September 2017 08:22:03
Eccentricity: 0.0022994
inclination: 82.5697°
perigee height: 600 km
apogee height: 632 km
right ascension of ascending node: 146.3657°
argument of perigee: 93.3781°
revolutions per day: 14.84135672
mean anomaly at epoch: 26.0925°
orbit number at epoch: 86991

The dashed part of the orbit path shows where the satellite is in the earth's shadow,  

DLR